| time (UTC) | temp F | wind direction | speed knots | gust knots | rain 1hr in | rain 24hr in | rain mn in | humidity % | barometer mb |
| 20260509234647 | 61 | 274 | 4.3 | 7.0 | 0.00 | 0.00 | 0.00 | 81 | 1026.5 |
| 20260509234146 | 61 | 272 | 4.3 | 8.7 | 0.00 | 0.00 | 0.00 | 80 | 1026.5 |
| 20260509233645 | 61 | 265 | 5.2 | 7.8 | 0.00 | 0.00 | 0.00 | 80 | 1026.5 |
| 20260509232640 | 61 | 263 | 5.2 | 9.6 | 0.00 | 0.00 | 0.00 | 80 | 1026.4 |
| 20260509232138 | 61 | 262 | 5.2 | 9.6 | 0.00 | 0.00 | 0.00 | 80 | 1026.4 |
| 20260509231635 | 61 | 263 | 5.2 | 10.4 | 0.00 | 0.00 | 0.00 | 80 | 1026.4 |
| 20260509231133 | 60 | 264 | 6.1 | 10.4 | 0.00 | 0.00 | 0.00 | 81 | 1026.4 |
| 20260509230631 | 60 | 261 | 6.1 | 8.7 | 0.00 | 0.00 | 0.00 | 80 | 1026.3 |
| 20260509230059 | 60 | 261 | 6.1 | 9.6 | 0.00 | 0.00 | 0.00 | 81 | 1026.3 |
| 20260509225551 | 60 | 266 | 6.1 | 10.4 | 0.00 | 0.00 | 0.00 | 82 | 1026.3 |
| 20260509225050 | 59 | 266 | 7.0 | 12.2 | 0.00 | 0.00 | 0.00 | 82 | 1026.2 |
| 20260509224547 | 59 | 267 | 7.0 | 12.2 | 0.00 | 0.00 | 0.00 | 81 | 1026.2 |
| 20260509224044 | 59 | 261 | 7.0 | 12.2 | 0.00 | 0.00 | 0.00 | 81 | 1026.1 |
| 20260509223542 | 59 | 262 | 7.8 | 13.0 | 0.00 | 0.00 | 0.00 | 83 | 1026.3 |
| 20260509223039 | 59 | 262 | 7.8 | 13.9 | 0.00 | 0.00 | 0.00 | 81 | 1026.2 |
| 20260509222538 | 59 | 262 | 8.7 | 13.9 | 0.00 | 0.00 | 0.00 | 81 | 1026.2 |
| 20260509222037 | 59 | 256 | 9.6 | 14.8 | 0.00 | 0.00 | 0.00 | 80 | 1026.2 |
| 20260509221535 | 59 | 251 | 9.6 | 13.9 | 0.00 | 0.00 | 0.00 | 81 | 1026.2 |
| 20260509220531 | 59 | 257 | 8.7 | 13.9 | 0.00 | 0.00 | 0.00 | 82 | 1026.1 |
| 20260509220029 | 59 | 254 | 8.7 | 13.9 | 0.00 | 0.00 | 0.00 | 82 | 1026.1 |
| 20260509215528 | 59 | 260 | 7.0 | 11.3 | 0.00 | 0.00 | 0.00 | 84 | 1026.0 |
| 20260509215027 | 59 | 274 | 6.1 | 11.3 | 0.00 | 0.00 | 0.00 | 84 | 1026.0 |
| 20260509214524 | 58 | 281 | 5.2 | 9.6 | 0.00 | 0.00 | 0.00 | 86 | 1026.0 |
| 20260509214023 | 58 | 287 | 5.2 | 10.4 | 0.00 | 0.00 | 0.00 | 86 | 1025.9 |
| 20260509213522 | 58 | 306 | 4.3 | 8.7 | 0.00 | 0.00 | 0.00 | 86 | 1025.9 |
| 20260509213020 | 58 | 268 | 7.0 | 13.0 | 0.00 | 0.00 | 0.00 | 88 | 1025.8 |
| 20260509212519 | 58 | 255 | 9.6 | 13.0 | 0.00 | 0.00 | 0.00 | 87 | 1025.8 |
| 20260509212018 | 57 | 255 | 8.7 | 13.0 | 0.00 | 0.00 | 0.00 | 87 | 1025.8 |
| 20260509211517 | 57 | 256 | 9.6 | 14.8 | 0.00 | 0.00 | 0.00 | 88 | 1025.7 |
| 20260509211016 | 57 | 254 | 8.7 | 13.0 | 0.00 | 0.00 | 0.00 | 89 | 1025.7 |
| 20260509210513 | 57 | 255 | 8.7 | 13.9 | 0.00 | 0.00 | 0.00 | 89 | 1025.6 |
| 20260509205507 | 57 | 248 | 8.7 | 13.0 | 0.00 | 0.00 | 0.00 | 90 | 1025.5 |
| 20260509204501 | 57 | 253 | 9.6 | 13.0 | 0.00 | 0.00 | 0.00 | 90 | 1025.4 |
| 20260509203958 | 57 | 255 | 9.6 | 13.0 | 0.00 | 0.00 | 0.00 | 90 | 1025.3 |
| 20260509203456 | 57 | 252 | 9.6 | 13.0 | 0.00 | 0.00 | 0.00 | 90 | 1025.2 |
| 20260509202954 | 57 | 249 | 8.7 | 13.0 | 0.00 | 0.00 | 0.00 | 90 | 1025.2 |
| 20260509202453 | 57 | 249 | 8.7 | 13.0 | 0.00 | 0.00 | 0.00 | 90 | 1025.1 |
| 20260509201448 | 57 | 249 | 8.7 | 12.2 | 0.00 | 0.00 | 0.00 | 90 | 1025.0 |
| 20260509200946 | 57 | 251 | 9.6 | 13.9 | 0.00 | 0.00 | 0.00 | 90 | 1024.9 |
| 20260509200445 | 57 | 250 | 9.6 | 13.9 | 0.00 | 0.00 | 0.00 | 89 | 1024.8 |
| 20260509195943 | 57 | 248 | 8.7 | 12.2 | 0.00 | 0.00 | 0.00 | 90 | 1024.7 |
| 20260509195440 | 57 | 247 | 8.7 | 12.2 | 0.00 | 0.00 | 0.00 | 90 | 1024.6 |
| 20260509194939 | 57 | 252 | 9.6 | 13.9 | 0.00 | 0.00 | 0.00 | 90 | 1024.5 |
| 20260509193934 | 57 | 252 | 9.6 | 12.2 | 0.00 | 0.00 | 0.00 | 89 | 1024.5 |
| 20260509193431 | 57 | 253 | 9.6 | 13.0 | 0.00 | 0.00 | 0.00 | 89 | 1024.5 |
| 20260509192930 | 57 | 254 | 8.7 | 13.0 | 0.00 | 0.00 | 0.00 | 89 | 1024.4 |
| 20260509192428 | 57 | 255 | 8.7 | 12.2 | 0.00 | 0.00 | 0.00 | 89 | 1024.4 |
| 20260509191927 | 57 | 256 | 8.7 | 12.2 | 0.00 | 0.00 | 0.00 | 89 | 1024.4 |
| 20260509191426 | 57 | 253 | 8.7 | 12.2 | 0.00 | 0.00 | 0.00 | 89 | 1024.4 |
| 20260509190924 | 57 | 251 | 7.8 | 12.2 | 0.00 | 0.00 | 0.00 | 89 | 1024.3 |
| 20260509190423 | 58 | 255 | 7.8 | 13.0 | 0.00 | 0.00 | 0.00 | 89 | 1024.3 |
| 20260509185922 | 58 | 254 | 7.8 | 12.2 | 0.00 | 0.00 | 0.00 | 89 | 1024.2 |
| 20260509184916 | 58 | 260 | 6.1 | 12.2 | 0.00 | 0.00 | 0.00 | 89 | 1024.1 |
| 20260509184415 | 58 | 260 | 7.8 | 12.2 | 0.00 | 0.00 | 0.00 | 88 | 1024.0 |
| 20260509183410 | 58 | 256 | 8.7 | 13.0 | 0.00 | 0.00 | 0.00 | 88 | 1024.0 |
| 20260509182909 | 57 | 261 | 8.7 | 13.9 | 0.00 | 0.00 | 0.00 | 86 | 1023.9 |
| 20260509182407 | 57 | 257 | 8.7 | 13.9 | 0.00 | 0.00 | 0.00 | 86 | 1023.9 |
| 20260509180858 | 57 | 272 | 7.0 | 13.0 | 0.00 | 0.00 | 0.00 | 89 | 1023.8 |
| 20260509180356 | 57 | 266 | 7.0 | 12.2 | 0.00 | 0.00 | 0.00 | 89 | 1023.8 |
| 20260509175855 | 57 | 258 | 7.0 | 10.4 | 0.00 | 0.00 | 0.00 | 90 | 1023.7 |
| 20260509175353 | 57 | 258 | 8.7 | 12.2 | 0.00 | 0.00 | 0.00 | 89 | 1023.6 |
| 20260509174852 | 57 | 258 | 8.7 | 12.2 | 0.00 | 0.00 | 0.00 | 89 | 1023.5 |
| 20260509174350 | 57 | 258 | 7.8 | 12.2 | 0.00 | 0.00 | 0.00 | 89 | 1023.5 |
| 20260509173849 | 57 | 259 | 7.8 | 11.3 | 0.00 | 0.00 | 0.00 | 89 | 1023.4 |
| 20260509172844 | 57 | 254 | 8.7 | 12.2 | 0.00 | 0.00 | 0.00 | 88 | 1023.3 |
| 20260509172342 | 58 | 253 | 7.8 | 12.2 | 0.00 | 0.00 | 0.00 | 89 | 1023.3 |
| 20260509171839 | 58 | 250 | 8.7 | 12.2 | 0.00 | 0.00 | 0.00 | 89 | 1023.3 |
| 20260509171338 | 58 | 254 | 8.7 | 12.2 | 0.00 | 0.00 | 0.00 | 89 | 1023.3 |
| 20260509170837 | 58 | 252 | 7.8 | 11.3 | 0.00 | 0.00 | 0.00 | 89 | 1023.3 |
| 20260509170335 | 58 | 253 | 7.8 | 10.4 | 0.00 | 0.00 | 0.00 | 88 | 1023.3 |
| 20260509165834 | 58 | 252 | 8.7 | 12.2 | 0.00 | 0.00 | 0.00 | 87 | 1023.4 |
| 20260509165333 | 58 | 252 | 7.8 | 12.2 | 0.00 | 0.00 | 0.00 | 87 | 1023.4 |
| 20260509164832 | 58 | 250 | 7.0 | 12.2 | 0.00 | 0.00 | 0.00 | 87 | 1023.4 |
| 20260509164331 | 58 | 247 | 6.1 | 10.4 | 0.00 | 0.00 | 0.00 | 87 | 1023.4 |
| 20260509163830 | 58 | 249 | 7.8 | 10.4 | 0.00 | 0.00 | 0.00 | 87 | 1023.4 |
| 20260509163327 | 59 | 250 | 7.0 | 9.6 | 0.00 | 0.00 | 0.00 | 86 | 1023.4 |
| 20260509162826 | 59 | 251 | 7.0 | 10.4 | 0.00 | 0.00 | 0.00 | 86 | 1023.4 |
| 20260509161318 | 59 | 307 | 4.3 | 7.0 | 0.00 | 0.00 | 0.00 | 86 | 1023.6 |
| 20260509160816 | 59 | 308 | 5.2 | 8.7 | 0.00 | 0.00 | 0.00 | 86 | 1023.6 |
| 20260509160314 | 59 | 304 | 5.2 | 8.7 | 0.00 | 0.00 | 0.00 | 86 | 1023.6 |
| 20260509155813 | 59 | 292 | 5.2 | 9.6 | 0.00 | 0.00 | 0.00 | 85 | 1023.6 |
| 20260509155312 | 59 | 302 | 5.2 | 8.7 | 0.00 | 0.00 | 0.00 | 86 | 1023.5 |
| 20260509154811 | 59 | 315 | 5.2 | 8.7 | 0.00 | 0.00 | 0.00 | 87 | 1023.5 |
| 20260509154308 | 59 | 305 | 3.5 | 7.0 | 0.00 | 0.00 | 0.00 | 88 | 1023.5 |
| 20260509153806 | 59 | 289 | 4.3 | 7.0 | 0.00 | 0.00 | 0.00 | 87 | 1023.6 |
| 20260509153305 | 59 | 267 | 5.2 | 8.7 | 0.00 | 0.00 | 0.00 | 87 | 1023.6 |
| 20260509152803 | 59 | 276 | 4.3 | 8.7 | 0.00 | 0.00 | 0.00 | 86 | 1023.6 |
| 20260509152301 | 60 | 273 | 4.3 | 7.8 | 0.00 | 0.00 | 0.00 | 87 | 1023.6 |
| 20260509151758 | 59 | 264 | 6.1 | 9.6 | 0.00 | 0.00 | 0.00 | 85 | 1023.6 |
| 20260509151257 | 59 | 257 | 7.0 | 10.4 | 0.00 | 0.00 | 0.00 | 84 | 1023.6 |
| 20260509150756 | 59 | 254 | 7.0 | 9.6 | 0.00 | 0.00 | 0.00 | 85 | 1023.5 |
| 20260509150253 | 59 | 252 | 6.1 | 8.7 | 0.00 | 0.00 | 0.00 | 84 | 1023.5 |
| 20260509145752 | 59 | 250 | 7.0 | 9.6 | 0.00 | 0.00 | 0.00 | 84 | 1023.5 |
| 20260509145251 | 59 | 251 | 7.0 | 10.4 | 0.00 | 0.00 | 0.00 | 83 | 1023.4 |
| 20260509144750 | 59 | 256 | 7.8 | 10.4 | 0.00 | 0.00 | 0.00 | 84 | 1023.4 |
| 20260509144248 | 59 | 252 | 7.0 | 10.4 | 0.00 | 0.00 | 0.00 | 84 | 1023.4 |
| 20260509142237 | 59 | 250 | 7.0 | 10.4 | 0.00 | 0.00 | 0.00 | 85 | 1023.5 |
| 20260509141230 | 59 | 253 | 8.7 | 12.2 | 0.00 | 0.00 | 0.00 | 85 | 1023.4 |
| 20260509140729 | 59 | 254 | 7.8 | 10.4 | 0.00 | 0.00 | 0.00 | 86 | 1023.5 |
| 20260509140226 | 59 | 255 | 8.7 | 10.4 | 0.00 | 0.00 | 0.00 | 88 | 1023.4 |
| 20260509134719 | 59 | 261 | 7.8 | 12.2 | 0.00 | 0.00 | 0.00 | 87 | 1023.5 |
| 20260509134217 | 60 | 258 | 7.8 | 11.3 | 0.00 | 0.00 | 0.00 | 87 | 1023.5 |
| 20260509133212 | 60 | 258 | 7.8 | 11.3 | 0.00 | 0.00 | 0.00 | 83 | 1023.5 |
| 20260509132206 | 60 | 252 | 7.0 | 10.4 | 0.00 | 0.00 | 0.00 | 81 | 1023.5 |
| 20260509131201 | 60 | 268 | 5.2 | 8.7 | 0.00 | 0.00 | 0.00 | 82 | 1023.5 |
| 20260509130659 | 61 | 258 | 4.3 | 7.0 | 0.00 | 0.00 | 0.00 | 81 | 1023.6 |
| 20260509125653 | 61 | 263 | 5.2 | 8.7 | 0.00 | 0.00 | 0.00 | 83 | 1023.5 |
| 20260509125151 | 62 | 255 | 5.2 | 7.8 | 0.00 | 0.00 | 0.00 | 80 | 1023.5 |
| 20260509124650 | 62 | 259 | 5.2 | 7.0 | 0.00 | 0.00 | 0.00 | 79 | 1023.5 |
| 20260509123646 | 63 | 247 | 4.3 | 6.1 | 0.00 | 0.00 | 0.00 | 71 | 1023.6 |
| 20260509123144 | 63 | 218 | 5.2 | 7.0 | 0.00 | 0.00 | 0.00 | 65 | 1023.5 |
| 20260509122643 | 63 | 213 | 6.1 | 7.0 | 0.00 | 0.00 | 0.00 | 64 | 1023.5 |
| 20260509122140 | 63 | 210 | 7.0 | 7.8 | 0.00 | 0.00 | 0.00 | 65 | 1023.6 |
| 20260509121637 | 63 | 211 | 6.1 | 7.8 | 0.00 | 0.00 | 0.00 | 65 | 1023.6 |
| 20260509121136 | 63 | 206 | 7.0 | 8.7 | 0.00 | 0.00 | 0.00 | 65 | 1023.5 |
| 20260509115627 | 63 | 202 | 7.8 | 8.7 | 0.00 | 0.00 | 0.00 | 64 | 1023.6 |
| 20260509115125 | 63 | 200 | 7.0 | 7.8 | 0.00 | 0.00 | 0.00 | 65 | 1023.6 |
| 20260509114624 | 63 | 200 | 7.0 | 7.8 | 0.00 | 0.00 | 0.00 | 65 | 1023.6 |
| 20260509114123 | 63 | 199 | 6.1 | 8.7 | 0.00 | 0.00 | 0.00 | 65 | 1023.6 |
| 20260509113620 | 63 | 204 | 6.1 | 7.0 | 0.00 | 0.00 | 0.00 | 65 | 1023.6 |
| 20260509113118 | 64 | 194 | 6.1 | 8.7 | 0.00 | 0.00 | 0.00 | 63 | 1023.6 |
| 20260509112616 | 64 | 198 | 6.1 | 8.7 | 0.00 | 0.00 | 0.00 | 63 | 1023.6 |
| 20260509112114 | 64 | 194 | 7.0 | 9.6 | 0.00 | 0.00 | 0.00 | 63 | 1023.6 |
| 20260509111611 | 64 | 195 | 6.1 | 8.7 | 0.00 | 0.00 | 0.00 | 63 | 1023.6 |
| 20260509111110 | 64 | 198 | 5.2 | 7.0 | 0.00 | 0.00 | 0.00 | 63 | 1023.6 |
| 20260509110609 | 64 | 195 | 6.1 | 7.8 | 0.00 | 0.00 | 0.00 | 63 | 1023.6 |
| 20260509110107 | 64 | 193 | 5.2 | 7.0 | 0.00 | 0.00 | 0.00 | 63 | 1023.5 |
| 20260509105605 | 64 | 189 | 5.2 | 6.1 | 0.00 | 0.00 | 0.00 | 64 | 1023.5 |
| 20260509104600 | 64 | 192 | 7.0 | 8.7 | 0.00 | 0.00 | 0.00 | 63 | 1023.4 |
| 20260509103554 | 64 | 189 | 6.1 | 8.7 | 0.00 | 0.00 | 0.00 | 62 | 1023.5 |
| 20260509103052 | 64 | 188 | 7.0 | 9.6 | 0.00 | 0.00 | 0.00 | 62 | 1023.4 |
| 20260509102551 | 64 | 185 | 6.1 | 8.7 | 0.00 | 0.00 | 0.00 | 63 | 1023.4 |
| 20260509102048 | 64 | 186 | 7.0 | 8.7 | 0.00 | 0.00 | 0.00 | 63 | 1023.3 |
| 20260509101547 | 64 | 184 | 7.0 | 9.6 | 0.00 | 0.00 | 0.00 | 64 | 1023.3 |
| 20260509101046 | 64 | 182 | 7.0 | 9.6 | 0.00 | 0.00 | 0.00 | 64 | 1023.2 |
| 20260509100544 | 64 | 184 | 7.8 | 10.4 | 0.00 | 0.00 | 0.00 | 64 | 1023.2 |
| 20260509100042 | 64 | 180 | 7.8 | 10.4 | 0.00 | 0.00 | 0.00 | 63 | 1023.2 |
| 20260509095541 | 64 | 181 | 7.8 | 10.4 | 0.00 | 0.00 | 0.00 | 62 | 1023.1 |
| 20260509095039 | 64 | 181 | 7.8 | 10.4 | 0.00 | 0.00 | 0.00 | 61 | 1023.2 |
| 20260509094537 | 64 | 181 | 7.8 | 9.6 | 0.00 | 0.00 | 0.00 | 61 | 1023.1 |
| 20260509094036 | 64 | 180 | 7.8 | 9.6 | 0.00 | 0.00 | 0.00 | 62 | 1023.1 |
| 20260509093533 | 64 | 179 | 7.8 | 11.3 | 0.00 | 0.00 | 0.00 | 62 | 1023.1 |
| 20260509093032 | 64 | 182 | 8.7 | 11.3 | 0.00 | 0.00 | 0.00 | 64 | 1023.1 |
| 20260509092530 | 64 | 179 | 7.8 | 10.4 | 0.00 | 0.00 | 0.00 | 64 | 1023.1 |
| 20260509092028 | 64 | 179 | 8.7 | 11.3 | 0.00 | 0.00 | 0.00 | 64 | 1023.0 |
| 20260509090521 | 64 | 182 | 7.8 | 10.4 | 0.00 | 0.00 | 0.00 | 65 | 1022.9 |
| 20260509090020 | 64 | 179 | 7.8 | 10.4 | 0.00 | 0.00 | 0.00 | 65 | 1022.9 |
| 20260509085519 | 64 | 181 | 7.8 | 10.4 | 0.00 | 0.00 | 0.00 | 66 | 1022.9 |
| 20260509084513 | 64 | 178 | 7.8 | 10.4 | 0.00 | 0.00 | 0.00 | 66 | 1022.8 |
| 20260509084010 | 64 | 177 | 7.8 | 10.4 | 0.00 | 0.00 | 0.00 | 65 | 1022.8 |
| 20260509082502 | 64 | 183 | 7.8 | 10.4 | 0.00 | 0.00 | 0.00 | 65 | 1022.6 |
| 20260509082001 | 64 | 178 | 7.0 | 10.4 | 0.00 | 0.00 | 0.00 | 65 | 1022.6 |
| 20260509081500 | 64 | 182 | 8.7 | 13.0 | 0.00 | 0.00 | 0.00 | 64 | 1022.5 |
| 20260509080959 | 64 | 181 | 8.7 | 12.2 | 0.00 | 0.00 | 0.00 | 63 | 1022.4 |
| 20260509080458 | 64 | 186 | 8.7 | 12.2 | 0.00 | 0.00 | 0.00 | 63 | 1022.3 |
| 20260509075956 | 64 | 186 | 7.8 | 11.3 | 0.00 | 0.00 | 0.00 | 65 | 1022.3 |
| 20260509075455 | 64 | 185 | 8.7 | 11.3 | 0.00 | 0.00 | 0.00 | 65 | 1022.2 |
| 20260509074953 | 64 | 183 | 8.7 | 13.0 | 0.00 | 0.00 | 0.00 | 65 | 1022.2 |
| 20260509074452 | 64 | 183 | 7.8 | 12.2 | 0.00 | 0.00 | 0.00 | 65 | 1022.1 |
| 20260509072943 | 65 | 184 | 8.7 | 13.9 | 0.00 | 0.00 | 0.00 | 63 | 1022.0 |
| 20260509072442 | 64 | 182 | 7.8 | 11.3 | 0.00 | 0.00 | 0.00 | 62 | 1021.9 |
| 20260509071940 | 65 | 187 | 7.8 | 12.2 | 0.00 | 0.00 | 0.00 | 62 | 1021.9 |
| 20260509070935 | 65 | 189 | 8.7 | 12.2 | 0.00 | 0.00 | 0.00 | 61 | 1021.8 |
| 20260509070433 | 65 | 188 | 8.7 | 13.0 | 0.00 | 0.00 | 0.00 | 61 | 1021.7 |
| 20260509065427 | 65 | 194 | 9.6 | 14.8 | 0.00 | 0.00 | 0.00 | 59 | 1021.6 |
| 20260509063919 | 66 | 193 | 8.7 | 13.0 | 0.00 | 0.00 | 0.00 | 59 | 1021.5 |
| 20260509063417 | 66 | 197 | 7.0 | 11.3 | 0.00 | 0.00 | 0.00 | 59 | 1021.5 |
| 20260509062917 | 66 | 184 | 7.0 | 11.3 | 0.00 | 0.00 | 0.00 | 59 | 1021.4 |
| 20260509062415 | 66 | 194 | 8.7 | 13.9 | 0.00 | 0.00 | 0.00 | 59 | 1021.5 |
| 20260509061913 | 67 | 197 | 8.7 | 13.9 | 0.00 | 0.00 | 0.00 | 59 | 1021.4 |
| 20260509061412 | 67 | 197 | 6.1 | 10.4 | 0.00 | 0.00 | 0.00 | 60 | 1021.4 |
| 20260509060910 | 67 | 195 | 7.8 | 14.8 | 0.00 | 0.00 | 0.00 | 60 | 1021.3 |
| 20260509060408 | 67 | 186 | 7.8 | 13.0 | 0.00 | 0.00 | 0.00 | 60 | 1021.3 |
| 20260509055906 | 67 | 197 | 9.6 | 14.8 | 0.00 | 0.00 | 0.00 | 60 | 1021.2 |
| 20260509055405 | 67 | 191 | 7.8 | 13.0 | 0.00 | 0.00 | 0.00 | 59 | 1021.2 |
| 20260509054903 | 67 | 188 | 8.7 | 13.9 | 0.00 | 0.00 | 0.00 | 59 | 1021.1 |
| 20260509054402 | 67 | 193 | 8.7 | 14.8 | 0.00 | 0.00 | 0.00 | 59 | 1021.1 |
| 20260509053900 | 67 | 181 | 8.7 | 13.0 | 0.00 | 0.00 | 0.00 | 58 | 1021.1 |
| 20260509053357 | 67 | 185 | 7.8 | 13.9 | 0.00 | 0.00 | 0.00 | 58 | 1021.0 |
| 20260509052352 | 68 | 196 | 6.1 | 10.4 | 0.00 | 0.00 | 0.00 | 58 | 1021.1 |
| 20260509051346 | 67 | 191 | 7.0 | 13.0 | 0.00 | 0.00 | 0.00 | 56 | 1021.0 |
| 20260509050845 | 67 | 205 | 9.6 | 13.9 | 0.00 | 0.00 | 0.00 | 60 | 1021.0 |
| 20260509045839 | 68 | 199 | 7.0 | 11.3 | 0.00 | 0.00 | 0.00 | 58 | 1021.0 |
| 20260509045338 | 67 | 205 | 9.6 | 14.8 | 0.00 | 0.00 | 0.00 | 60 | 1020.9 |
| 20260509043828 | 67 | 193 | 9.6 | 15.6 | 0.00 | 0.00 | 0.00 | 59 | 1020.9 |
| 20260509043326 | 68 | 192 | 9.6 | 13.9 | 0.00 | 0.00 | 0.00 | 56 | 1020.9 |
| 20260509042824 | 67 | 191 | 8.7 | 13.9 | 0.00 | 0.00 | 0.00 | 60 | 1020.9 |
| 20260509042322 | 67 | 193 | 9.6 | 14.8 | 0.00 | 0.00 | 0.00 | 60 | 1020.9 |
| 20260509041316 | 68 | 204 | 6.1 | 13.0 | 0.00 | 0.00 | 0.00 | 60 | 1020.9 |
| 20260509040224 | 68 | 199 | 8.7 | 13.0 | 0.00 | 0.00 | 0.00 | 58 | 1021.0 |
| 20260509035109 | 67 | 205 | 8.7 | 14.8 | 0.00 | 0.00 | 0.00 | 58 | 1021.0 |
| 20260509034104 | 67 | 204 | 10.4 | 14.8 | 0.00 | 0.00 | 0.00 | 57 | 1021.0 |
| 20260509033602 | 67 | 208 | 9.6 | 15.6 | 0.00 | 0.00 | 0.00 | 55 | 1021.0 |
| 20260509032054 | 67 | 203 | 9.6 | 17.4 | 0.00 | 0.00 | 0.00 | 55 | 1021.0 |
| 20260509031553 | 66 | 207 | 11.3 | 17.4 | 0.00 | 0.00 | 0.00 | 57 | 1021.2 |
| 20260509030548 | 67 | 200 | 11.3 | 18.2 | 0.00 | 0.00 | 0.00 | 55 | 1021.2 |
| 20260509025544 | 68 | 196 | 8.7 | 13.0 | 0.00 | 0.00 | 0.00 | 51 | 1021.3 |
| 20260509024539 | 68 | 211 | 9.6 | 14.8 | 0.00 | 0.00 | 0.00 | 49 | 1021.4 |
| 20260509024038 | 69 | 188 | 5.2 | 10.4 | 0.00 | 0.00 | 0.00 | 46 | 1021.4 |
| 20260509023537 | 69 | 219 | 5.2 | 11.3 | 0.00 | 0.00 | 0.00 | 47 | 1021.5 |
| 20260509023035 | 68 | 213 | 6.1 | 13.0 | 0.00 | 0.00 | 0.00 | 49 | 1021.5 |
| 20260509022534 | 67 | 222 | 7.8 | 15.6 | 0.00 | 0.00 | 0.00 | 48 | 1021.5 |
| 20260509022033 | 67 | 219 | 7.0 | 13.0 | 0.00 | 0.00 | 0.00 | 48 | 1021.6 |
| 20260509021026 | 67 | 219 | 7.0 | 13.0 | 0.00 | 0.00 | 0.00 | 47 | 1021.6 |
| 20260509020525 | 67 | 222 | 7.0 | 13.9 | 0.00 | 0.00 | 0.00 | 52 | 1021.6 |
| 20260509020022 | 67 | 219 | 7.8 | 13.0 | 0.00 | 0.00 | 0.00 | 49 | 1021.7 |
| 20260509015521 | 67 | 231 | 7.8 | 14.8 | 0.00 | 0.00 | 0.00 | 47 | 1021.8 |
| 20260509014013 | 67 | 230 | 5.2 | 10.4 | 0.00 | 0.00 | 0.00 | 51 | 1022.0 |
| 20260509013512 | 67 | 250 | 5.2 | 7.8 | 0.00 | 0.00 | 0.00 | 53 | 1022.0 |
| 20260509012506 | 66 | 242 | 6.1 | 11.3 | 0.00 | 0.00 | 0.00 | 53 | 1022.2 |
| 20260509012004 | 66 | 249 | 6.1 | 10.4 | 0.00 | 0.00 | 0.00 | 53 | 1022.2 |
| 20260509011502 | 66 | 243 | 4.3 | 9.6 | 0.00 | 0.00 | 0.00 | 55 | 1022.3 |
| 20260509010959 | 65 | 249 | 6.1 | 12.2 | 0.00 | 0.00 | 0.00 | 56 | 1022.3 |
| 20260509010457 | 66 | 248 | 7.0 | 10.4 | 0.00 | 0.00 | 0.00 | 53 | 1022.4 |
| 20260509005956 | 65 | 250 | 7.0 | 12.2 | 0.00 | 0.00 | 0.00 | 54 | 1022.4 |
| 20260509005453 | 64 | 253 | 7.0 | 11.3 | 0.00 | 0.00 | 0.00 | 59 | 1022.5 |
| 20260509004952 | 64 | 249 | 7.8 | 13.9 | 0.00 | 0.00 | 0.00 | 56 | 1022.6 |
| 20260509004449 | 63 | 254 | 7.0 | 12.2 | 0.00 | 0.00 | 0.00 | 59 | 1022.6 |
| 20260509003948 | 62 | 274 | 6.1 | 10.4 | 0.00 | 0.00 | 0.00 | 62 | 1022.7 |
| 20260509003444 | 62 | 288 | 4.3 | 9.6 | 0.00 | 0.00 | 0.00 | 63 | 1022.7 |
| 20260509002943 | 62 | 274 | 6.1 | 12.2 | 0.00 | 0.00 | 0.00 | 62 | 1022.7 |
| 20260509002441 | 62 | 266 | 7.8 | 13.0 | 0.00 | 0.00 | 0.00 | 63 | 1022.7 |
| 20260509001437 | 62 | 249 | 7.8 | 13.0 | 0.00 | 0.00 | 0.00 | 59 | 1022.7 |
| 20260509000935 | 62 | 258 | 8.7 | 14.8 | 0.00 | 0.00 | 0.00 | 59 | 1022.6 |
| 20260509000434 | 61 | 257 | 9.6 | 14.8 | 0.00 | 0.00 | 0.00 | 61 | 1022.7 |
| 20260508235933 | 61 | 259 | 8.7 | 14.8 | 0.00 | 0.00 | 0.00 | 62 | 1022.7 |
| 20260508235432 | 61 | 258 | 7.8 | 14.8 | 0.00 | 0.00 | 0.00 | 63 | 1022.7 |